GLOBALSTAR M097 [+]

Last updated on Fri Dec 29 2023 00:02:57 GMT+0000 (Coordinated Universal Time)

1 39072U 13005A 23362.49370662 -.00000115 00000+0 -65198-4 0 9994 2 39072 52.0044 108.1810 0001082 121.6420 238.4552 12.62273549503114
UTC large
Height (km)
Speed (km/s)
/
Latitude / Longitude
Inclination (degrees)
Orbital Period (minutes)
Azimuth
Elevation
Range (km)
Doppler Factor

Next 0 passes for location: London (51.5072 / 0.1276)

Sorry there are no passes over London.